FW6376 Weather Reports


Display with metric or nautical units.
time (UTC)temp
F
wind
direction
speed
MPH
gust
MPH
rain 1hr
in
rain 24hr
in
rain mn
in
humidity
%
barometer
mb
20260506133042 59 88 1.0 6.0 0.00 0.02 0.00 71 1008.1
20260506131531 59 109 0.0 6.0 0.00 0.02 0.00 72 1008.7
20260506130026 58 261 0.0 6.0 0.00 0.02 0.00 73 1008.9
20260506124519 58 155 0.0 2.0 0.00 0.02 0.00 74 1008.3
20260506123017 57 161 0.0 4.0 0.00 0.02 0.00 75 1008.9
20260506121513 56 27 0.0 4.0 0.00 0.02 0.00 78 1008.6
20260506120018 56 65 0.0 2.0 0.00 0.02 0.00 79 1008.8
20260506114510 55 65 0.0 2.0 0.00 0.02 0.00 80 1008.6
20260506113011 55 55 0.0 0.0 0.00 0.02 0.00 81 1008.7
20260506111509 54 55 0.0 0.0 0.00 0.02 0.00 81 1008.6
20260506110007 53 55 0.0 0.0 0.00 0.02 0.00 81 1008.7
20260506104507 52 55 0.0 0.0 0.00 0.02 0.00 81 1008.6
20260506103004 52 55 0.0 0.0 0.00 0.02 0.00 80 1008.6
20260506101559 52 55 0.0 0.0 0.00 0.02 0.00 79 1008.6
20260506094555 52 55 0.0 0.0 0.00 0.02 0.00 79 1008.5
20260506093055 53 55 0.0 0.0 0.00 0.02 0.00 79 1008.6
20260506091557 53 55 0.0 0.0 0.00 0.02 0.00 79 1008.8
20260506090050 54 55 0.0 0.0 0.00 0.02 0.00 79 1008.7
20260506084553 54 55 0.0 0.0 0.00 0.02 0.00 79 1008.7
20260506083051 54 55 0.0 2.0 0.00 0.02 0.00 79 1009.0
20260506081547 54 55 0.0 0.0 0.00 0.02 0.00 78 1008.9
20260506073046 55 55 0.0 1.0 0.00 0.02 0.00 78 1008.9
20260506071543 55 55 0.0 0.0 0.00 0.02 0.00 78 1008.8
20260506061541 55 55 0.0 0.0 0.00 0.02 0.00 78 1008.9
20260506044535 56 55 0.0 0.0 0.00 0.02 0.00 78 1008.7
20260506043036 56 55 0.0 0.0 0.00 0.02 0.00 78 1008.9
20260506041531 56 55 0.0 0.0 0.00 0.02 0.00 78 1009.0
20260506040037 56 55 0.0 0.0 0.00 0.02 0.00 78 1008.9
20260506034530 56 55 0.0 0.0 0.00 0.02 0.02 78 1008.8
20260506033033 56 55 0.0 0.0 0.00 0.02 0.02 78 1008.7
20260506031528 56 55 0.0 0.0 0.00 0.02 0.02 78 1008.4
20260506030026 56 55 0.0 0.0 0.00 0.02 0.02 78 1008.6
20260506024529 56 55 0.0 0.0 0.00 0.02 0.02 78 1008.6
20260506023029 56 55 0.0 0.0 0.00 0.02 0.02 78 1008.6
20260506021531 56 55 0.0 0.0 0.00 0.02 0.02 77 1008.4
20260506020022 56 55 0.0 0.0 0.00 0.02 0.02 75 1008.3
20260506014521 56 55 0.0 2.0 0.00 0.02 0.02 73 1008.2
20260506013018 57 55 0.0 0.0 0.00 0.02 0.02 72 1008.2
20260506011515 58 55 0.0 1.0 0.00 0.02 0.02 72 1007.8
20260506010030 58 55 0.0 0.0 0.00 0.02 0.02 70 1008.1
20260506004515 58 55 0.0 1.0 0.00 0.02 0.02 69 1007.6
20260506003010 59 55 0.0 0.0 0.00 0.02 0.02 69 1007.4
20260506001508 59 55 0.0 2.0 0.00 0.02 0.02 68 1007.4
20260506000007 59 55 0.0 3.0 0.00 0.02 0.02 68 1007.6
20260505234510 60 5 0.0 0.0 0.00 0.02 0.02 68 1007.8
20260505233004 60 5 0.0 1.0 0.00 0.02 0.02 67 1007.3
20260505231600 61 5 0.0 2.0 0.00 0.02 0.02 67 1006.9
20260505224557 61 5 0.0 1.0 0.00 0.02 0.02 66 1006.7
20260505223056 62 5 0.0 2.0 0.00 0.02 0.02 65 1006.4
20260505221558 62 5 0.0 1.0 0.01 0.02 0.02 66 1006.5
20260505220056 61 5 0.0 1.0 0.02 0.02 0.02 66 1006.5
20260505214618 61 5 0.0 0.0 0.02 0.02 0.02 66 1005.9
20260505213120 62 5 0.0 6.0 0.02 0.02 0.02 63 1006.2
20260505211545 63 165 2.0 7.0 0.01 0.01 0.01 63 1006.4
20260505210041 65 201 2.0 11.0 0.00 0.00 0.00 57 1006.5
20260505203031 79 237 3.0 8.0 0.00 0.00 0.00 21 1003.3
20260505201524 80 267 8.0 19.0 0.00 0.00 0.00 20 1002.9
20260505200015 81 259 3.0 17.0 0.00 0.00 0.00 20 1002.6
20260505194515 82 360 4.0 15.0 0.00 0.00 0.00 20 1002.8
20260505193013 82 278 2.0 12.0 0.00 0.00 0.00 20 1002.7
20260505191512 82 132 4.0 18.0 0.00 0.00 0.00 20 1002.9
20260505190013 82 133 2.0 22.0 0.00 0.00 0.00 20 1003.4
20260505184508 82 108 3.0 16.0 0.00 0.00 0.00 20 1003.3
20260505183014 81 259 2.0 13.0 0.00 0.00 0.00 21 1003.7
20260505181506 82 107 7.0 18.0 0.00 0.00 0.00 19 1004.1
20260505180003 82 102 3.0 14.0 0.00 0.00 0.00 20 1004.5
20260505174606 81 215 5.0 13.0 0.00 0.00 0.00 22 1004.5
20260505173057 81 325 3.0 19.0 0.00 0.00 0.00 21 1004.8
20260505171554 80 257 5.0 12.0 0.00 0.00 0.00 26 1004.7
20260505170051 79 134 3.0 14.0 0.00 0.00 0.00 26 1004.9
20260505164550 79 275 6.0 15.0 0.00 0.00 0.00 27 1005.2
20260505163043 77 293 4.0 16.0 0.00 0.00 0.00 29 1005.8
20260505161540 77 348 6.0 12.0 0.00 0.00 0.00 31 1005.9
20260505153029 73 315 3.0 14.0 0.00 0.00 0.00 36 1007.0
20260505151524 72 186 5.0 13.0 0.00 0.00 0.00 36 1007.5
20260505150121 71 313 2.0 11.0 0.00 0.00 0.00 37 1007.5